{"data":{"norad_id":65508,"intl_designator":"2025-198S","name":"STARLINK-35119","alt_names":[],"object_type":"PAYLOAD","status":"ACTIVE","operator":null,"country":"US","launch_date":"2025-09-05","launch_site_code":"AFETR","launch_vehicle":null,"mission":null,"orbit_class":"UNKNOWN","rcs_meters":null,"size_class":null,"mass_kg":null,"dimensions":null,"purposes":["comms"],"wikipedia_slug":null,"has_3d_model":false,"image_url":null,"decayed_at":null,"tle_current":{"epoch":"2026-09-20T21:18:54.584928Z","epoch_age_seconds":78401,"freshness":"FRESH","line1":"1 65508U 25198S   26263.88813177  .00015766  00000+0  47675-3 0  9997","line2":"2 65508  53.1603  80.2231 0000838  88.1066 272.0032 15.34401273 58568","mean_motion":15.34401273,"eccentricity":8.38e-5,"inclination_deg":53.1603,"raan_deg":80.2231,"arg_perigee_deg":88.1066,"mean_anomaly_deg":272.0032,"bstar":0.00047675,"rev_number":5856,"period_min":93.847680221522,"perigee_km":462.12619449039,"apogee_km":463.27271868051,"semimajor_km":6840.8364565854,"source":"CELESTRAK","updated_at":"2026-09-21T09:00:35.644546Z"}}}